Location: Braunsdorf
(50.7357°N, 11.9136°E)
Time: 03:51:14
(UTC+00:00)

Okean-O - Pass Details

Date: 17 February 2020
Orbit: 638 x 641 km, 98.2° (Epoch: 02 April)

Event Time Altitude Azimuth Distance (km) Brightness Sun altitude
Rises 05:42:51 0° 20° (NNE) 2,961 6.2 -6.8°
Reaches altitude 10° 05:45:10 10° 27° (NNE) 2,046 5.4 -6.5°
Maximum altitude 05:49:24 41° 98° (E) 937 4.3 -5.8°
Drops below altitude 10° 05:53:34 10° 169° (S) 2,029 5.5 -5.2°
Sets 05:55:52 0° 177° (S) 2,933 6.3 -4.8°
